Terminal Aerodrome Forecast
Issued by NWS

Home | Current Version | Previous Version | Text Only | Print | Product List | Glossary Off
Versions: 1 2 3 4 5 6 7 8 9 10 11 12 13 14 15 16 17 18

655
FTUS43 KABR 232321
TAFMBG
TAF
KMBG 232321Z 2400/2424 03016G23KT P6SM OVC021
     FM240200 03015KT P6SM OVC030
     FM240400 03014KT P6SM OVC015
     FM241100 01013G20KT P6SM BKN020
     FM241300 01013KT P6SM BKN045
     FM241700 36011KT P6SM SCT110=

USA.gov is the U.S. government's official web portal to all federal, state and local government web resources and services.